Regional Weather Roundup
Issued by NWS

Home | Current Version | Previous Version | Graphics & Text | Print | Product List | Glossary On
Versions: 1 2 3 4 5 6 7 8 9 10 11 12 13 14 15 16 17 18 19 20 21 22 23 24 25 26 27 28 29 30 31 32 33 34 35 36 37 38 39 40 41 42 43 44 45 46 47 48 49 50
000
ASUS43 KDTX 222310
RWRMI
MICHIGAN HOURLY REGIONAL WEATHER ROUNDUP
NATIONAL WEATHER SERVICE DETROIT/PONTIAC MI
700 PM EDT FRI MAY 22 2015

NOTE: "FAIR" INDICATES FEW OR NO CLOUDS BELOW 12,000 FEET WITH NO
SIGNIFICANT WEATHER AND/OR OBSTRUCTION TO VISIBILITY.

MIZ047>049-052>055-059>063-066>070-074>076-081>083-230000-
SOUTHEAST LOWER MICHIGAN

CITY           SKY/WX    TMP DP  RH WIND       PRES   REMARKS
ADRIAN         SUNNY     68  30  24 N7        30.23S
ALMA           SUNNY     64  27  24 W8        30.24R
ANN ARBOR      SUNNY     65  32  29 NW10      30.23S
BAD AXE        SUNNY     49  25  37 NE8       30.27S
CARO           SUNNY     60  27  28 NW10      30.24R
DETROIT CITY   SUNNY     65  25  22 NW8       30.23S
DETROIT        MOSUNNY   66  31  27 NW9       30.24S
FLINT          SUNNY     67  26  21 NW10      30.23R
GROSSE ILE     SUNNY     66  21  18 W10       30.22S
HILLSDALE      SUNNY     67  30  24 NW12G18   30.23S
HOWELL         SUNNY     64  28  25 NW7       30.23S

CITY           SKY/WX    TMP DP  RH WIND       PRES   REMARKS
JACKSON        SUNNY     65  30  27 NW13      30.23R
LAMBERTVILLE   SUNNY     68  30  24 N5        30.23S
LANSING        SUNNY     65  30  27 NW8       30.24R
LAPEER         FAIR      62  22  21 N9        30.23S
MASON          SUNNY     63  32  30 NW13G18   30.24R
MONROE         SUNNY     66  30  26 N9        30.22S
MT. CLEMENS    MOSUNNY   56  33  41 NE14      30.22R
PONTIAC        MOSUNNY   64  26  23 W10       30.22S
PORT HOPE        N/A     45  28  51 E6        30.27S
PORT HURON     SUNNY     48  27  43 NE12      30.28R
TRI CITIES     SUNNY     64  29  26 NE9       30.24R
MIDLAND        FAIR      63  22  20 N8        30.24R
TROY           SUNNY     66  25  21 NW9G17    30.25R
SAGINAW HB     SUNNY     63  25  23 N10G16    30.24R
$$
MIZ043>046-050>051-056>058-064>065-071>073-077>080-230000-
SOUTHWEST LOWER MICHIGAN

CITY           SKY/WX    TMP DP  RH WIND       PRES   REMARKS
BATTLE CREEK   SUNNY     65  29  25 NW15G22   30.25S
BENTON HARBOR  MOSUNNY   58  32  37 VRB5      30.27S
BIG RAPIDS     SUNNY     61  10  13 NW10G16   30.26R
COLDWATER      SUNNY     65  31  29 NW12      30.23S
FREMONT        FAIR      61  19  19 N8        30.27S
HOLLAND        SUNNY     61  29  29 NW7       30.28F
GRAND RAPIDS   MOSUNNY   64  28  25 W12       30.26R
IONIA          FAIR      65  27  23 NW14      30.24R
KALAMAZOO      SUNNY     63  29  27 N14G22    30.26S
LUDINGTON      SUNNY     61  19  19 CALM      30.28S
MARSHALL       SUNNY     65  32  28 NW8G17    30.23S
MOUNT PLEASANT SUNNY     63  26  24 N8        30.24R
MUSKEGON       MOSUNNY   61  23  23 W9        30.28S
SOUTH HAVEN    SUNNY     58  26  29 N5        30.27F
$$
MIZ016>042-230000-
NORTHERN LOWER MICHIGAN

CITY           SKY/WX    TMP DP  RH WIND       PRES   REMARKS
ALPENA         SUNNY     55  25  31 N10       30.25S
BEAVER ISLAND  SUNNY     53  21  28 SW6       30.26F
BELLAIRE       SUNNY     57  20  24 CALM      30.27F
CADILLAC       SUNNY     59  21  23 NW7       30.26S
CHARLEVOIX     SUNNY     54  23  30 CALM      30.30S
FRANKFORT      SUNNY     60  13  15 CALM      30.26F
GAYLORD        SUNNY     54  17  23 VRB6G17   30.26S
GRAYLING       SUNNY     55  18  22 W8        30.26F
HARBOR SPRINGS SUNNY     50  26  39 SW6       30.27S
HOUGHTON LAKE  SUNNY     56  15  20 NW13      30.27R
MANISTEE       SUNNY     59  23  25 NE6       30.28F
OSCODA         SUNNY     48  28  46 SE8       30.26S
PELLSTON       SUNNY     55  22  27 N9        30.26S
ROGERS CITY    SUNNY     50  27  39 NW9       30.26F
TRAVERSE CITY  MOSUNNY   56  25  30 NE6       30.27S
$$
MIZ007>008-015-230000-
EASTERN UPPER MICHIGAN

CITY           SKY/WX    TMP DP  RH WIND       PRES   REMARKS
KINROSS        SUNNY     48  14  25 NW12G17   30.25S
MACKINAC ISLAN SUNNY     50  28  43 W12       30.25S
NEWBERRY       SUNNY     53  22  30 N9        30.24F
S. S. MARIE    SUNNY     46  21  37 W10       30.25F
MUNISING         N/A     48  28  46 CALM      30.26S
$$
MIZ004>006-011>014-085-230000-
CENTRAL UPPER MICHIGAN

CITY           SKY/WX    TMP DP  RH WIND       PRES   REMARKS
MANISTIQUE     SUNNY     47  30  53 S12G17    30.26S
ESCANABA       SUNNY     52  34  50 S8        30.25S
MENOMINEE      SUNNY     54  28  37 S13       30.24S
SAWYER-GWINN   SUNNY     54  21  28 NE10      30.24S
$$
MIZ001>003-009>011-084-230000-
WESTERN UPPER MICHIGAN

CITY           SKY/WX    TMP DP  RH WIND       PRES   REMARKS
IRON MOUNTAIN  SUNNY     68  19  15 CALM      30.18S
HOUGHTON       SUNNY     51  26  37 SE7       30.22F
COPPER HARBOR    N/A     49  24  37 SW9       30.22F
IRONWOOD       SUNNY     66  28  24 W6        30.17F
$$

ABBREVIATIONS USED IN REMARKS
   TC - TEMPERATURE IN CELSIUS
  WCI - WIND CHILL INDEX
   HX - HEAT INDEX
  VSB - VISIBILITY




USA.gov is the U.S. government's official web portal to all federal, state and local government web resources and services.